Time,TemperatureF,DewpointF,PressureIn,WindDirection,WindDirectionDegrees,WindSpeedMPH,WindSpeedGustMPH,Humidity,HourlyPrecipIn,Conditions,Clouds,dailyrainin,SoftwareType,DateUTC
2013-05-22 00:00:00,53.8,41.1,29.96,WSW,250,0.0,12.0,62,0.00,,,0.00,Wunderground v.1.13,2013-05-22 07:00:00,
2013-05-22 00:09:00,53.3,40.6,29.97,WSW,250,0.0,12.0,62,0.00,,,0.00,Wunderground v.1.13,2013-05-22 07:09:00,
2013-05-22 00:15:00,53.2,40.5,29.97,WSW,250,0.0,12.0,62,0.00,,,0.00,Wunderground v.1.13,2013-05-22 07:15:00,
2013-05-22 00:25:00,52.6,39.5,29.97,West,277,0.0,12.0,61,0.00,,,0.00,Wunderground v.1.13,2013-05-22 07:25:00,
2013-05-22 00:30:00,52.3,38.0,29.97,West,279,0.0,12.0,58,0.00,,,0.00,Wunderground v.1.13,2013-05-22 07:30:00,
2013-05-22 00:40:00,51.4,33.9,29.97,West,266,2.0,12.0,51,0.00,,,0.00,Wunderground v.1.13,2013-05-22 07:40:00,
2013-05-22 00:49:00,50.8,32.8,29.97,West,275,2.0,12.0,50,0.00,,,0.00,Wunderground v.1.13,2013-05-22 07:49:00,
2013-05-22 00:55:00,50.5,32.0,29.97,WNW,287,2.0,12.0,49,0.00,,,0.00,Wunderground v.1.13,2013-05-22 07:55:00,
2013-05-22 01:00:00,50.1,32.2,29.98,West,268,2.0,12.0,50,0.00,,,0.00,Wunderground v.1.13,2013-05-22 08:00:00,
2013-05-22 01:05:00,49.8,31.9,29.98,West,277,1.0,1.0,50,0.00,,,0.00,Wunderground v.1.13,2013-05-22 08:05:00,
2013-05-22 01:14:00,49.2,30.8,29.98,West,277,2.0,2.0,49,0.00,,,0.00,Wunderground v.1.13,2013-05-22 08:14:00,
2013-05-22 01:20:00,48.8,31.0,29.97,WNW,284,2.0,3.0,50,0.00,,,0.00,Wunderground v.1.13,2013-05-22 08:20:00,
2013-05-22 01:25:00,48.5,30.7,29.97,West,262,3.0,3.0,50,0.00,,,0.00,Wunderground v.1.13,2013-05-22 08:25:00,
2013-05-22 01:30:00,48.0,30.2,29.98,West,281,3.0,3.0,50,0.00,,,0.00,Wunderground v.1.13,2013-05-22 08:30:00,
2013-05-22 08:19:00,48.0,30.2,30.01,WNW,291,0.0,6.0,50,0.00,,,0.00,Wunderground v.1.13,2013-05-22 15:19:00,
2013-05-22 08:25:00,48.2,30.4,30.01,WNW,291,1.0,1.0,50,0.00,,,0.00,Wunderground v.1.13,2013-05-22 15:25:00,
2013-05-22 08:35:00,48.9,31.1,30.01,WSW,251,1.0,1.0,50,0.00,,,0.00,Wunderground v.1.13,2013-05-22 15:35:00,
2013-05-22 08:45:00,49.6,31.2,30.01,West,279,0.0,6.0,49,0.00,,,0.00,Wunderground v.1.13,2013-05-22 15:45:00,
2013-05-22 08:50:00,50.1,31.7,30.02,West,279,0.0,6.0,49,0.00,,,0.00,Wunderground v.1.13,2013-05-22 15:50:00,
2013-05-22 08:59:00,51.1,31.0,30.01,West,279,0.0,6.0,46,0.00,,,0.00,Wunderground v.1.13,2013-05-22 15:59:00,
2013-05-22 09:05:00,51.6,30.4,30.01,West,263,0.0,6.0,44,0.00,,,0.00,Wunderground v.1.13,2013-05-22 16:05:00,
2013-05-22 09:15:00,52.6,30.1,30.01,West,271,1.0,1.0,42,0.00,,,0.00,Wunderground v.1.13,2013-05-22 16:15:00,
2013-05-22 09:20:00,52.8,30.3,30.02,WNW,290,1.0,6.0,42,0.00,,,0.00,Wunderground v.1.13,2013-05-22 16:20:00,
2013-05-22 09:29:00,53.5,32.1,30.02,WNW,297,1.0,1.0,44,0.00,,,0.00,Wunderground v.1.13,2013-05-22 16:29:00,
2013-05-22 09:35:00,54.2,32.7,30.01,West,276,0.0,6.0,44,0.00,,,0.00,Wunderground v.1.13,2013-05-22 16:35:00,
2013-05-22 09:44:00,55.1,31.8,30.01,NNE,19,1.0,1.0,41,0.00,,,0.00,Wunderground v.1.13,2013-05-22 16:44:00,
2013-05-22 09:49:00,55.4,30.2,30.01,West,278,1.0,6.0,38,0.00,,,0.00,Wunderground v.1.13,2013-05-22 16:49:00,
2013-05-22 09:55:00,55.0,31.1,30.01,WNW,288,2.0,2.0,40,0.00,,,0.00,Wunderground v.1.13,2013-05-22 16:55:00,
2013-05-22 10:05:00,55.4,31.5,30.01,WSW,240,1.0,6.0,40,0.00,,,0.00,Wunderground v.1.13,2013-05-22 17:05:00,
2013-05-22 10:15:00,55.7,31.1,30.02,West,275,2.0,6.0,39,0.00,,,0.00,Wunderground v.1.13,2013-05-22 17:15:00,
2013-05-22 10:25:00,56.9,31.5,30.02,WSW,255,1.0,1.0,38,0.00,,,0.00,Wunderground v.1.13,2013-05-22 17:25:00,
2013-05-22 10:35:00,57.6,30.1,30.01,WSW,248,1.0,1.0,35,0.00,,,0.00,Wunderground v.1.13,2013-05-22 17:35:00,
2013-05-22 10:40:00,58.0,31.2,30.01,NW,311,1.0,1.0,36,0.00,,,0.00,Wunderground v.1.13,2013-05-22 17:40:00,
2013-05-22 10:50:00,58.3,31.4,30.02,NW,311,2.0,6.0,36,0.00,,,0.00,Wunderground v.1.13,2013-05-22 17:50:00,
2013-05-22 10:55:00,58.3,30.0,30.01,SW,234,2.0,2.0,34,0.00,,,0.00,Wunderground v.1.13,2013-05-22 17:55:00,
2013-05-22 11:04:00,58.7,28.9,30.02,West,278,1.0,6.0,32,0.00,,,0.00,Wunderground v.1.13,2013-05-22 18:04:00,
2013-05-22 11:10:00,59.0,31.4,30.01,West,269,2.0,2.0,35,0.00,,,0.00,Wunderground v.1.13,2013-05-22 18:10:00,
2013-05-22 11:15:00,59.3,30.2,30.02,WNW,300,2.0,6.0,33,0.00,,,0.00,Wunderground v.1.13,2013-05-22 18:15:00,
2013-05-22 11:25:00,59.8,32.1,30.02,East,100,1.0,6.0,35,0.00,,,0.00,Wunderground v.1.13,2013-05-22 18:25:00,
2013-05-22 11:35:00,60.7,29.9,30.01,West,273,1.0,6.0,31,0.00,,,0.00,Wunderground v.1.13,2013-05-22 18:35:00,
2013-05-22 11:40:00,60.7,29.9,30.02,NW,306,2.0,6.0,31,0.00,,,0.00,Wunderground v.1.13,2013-05-22 18:40:00,
2013-05-22 11:49:00,60.7,29.1,30.02,WNW,300,3.0,6.0,30,0.00,,,0.00,Wunderground v.1.13,2013-05-22 18:49:00,
2013-05-22 11:55:00,61.2,28.7,30.02,West,273,2.0,6.0,29,0.00,,,0.00,Wunderground v.1.13,2013-05-22 18:55:00,
2013-05-22 12:04:00,62.4,28.8,30.01,WNW,294,2.0,6.0,28,0.00,,,0.00,Wunderground v.1.13,2013-05-22 19:04:00,
2013-05-22 12:10:00,63.2,28.6,30.01,East,80,1.0,1.0,27,0.00,,,0.00,Wunderground v.1.13,2013-05-22 19:10:00,
2013-05-22 12:15:00,63.2,27.7,30.02,West,278,1.0,6.0,26,0.00,,,0.00,Wunderground v.1.13,2013-05-22 19:15:00,
2013-05-22 12:25:00,62.6,27.2,30.02,NW,310,4.0,4.0,26,0.00,,,0.00,Wunderground v.1.13,2013-05-22 19:25:00,
2013-05-22 12:34:00,62.7,27.3,30.01,WNW,289,2.0,6.0,26,0.00,,,0.00,Wunderground v.1.13,2013-05-22 19:34:00,
2013-05-22 12:40:00,62.7,29.1,30.02,WNW,288,3.0,6.0,28,0.00,,,0.00,Wunderground v.1.13,2013-05-22 19:40:00,
2013-05-22 12:45:00,62.7,28.2,30.01,NW,308,4.0,4.0,27,0.00,,,0.00,Wunderground v.1.13,2013-05-22 19:45:00,
2013-05-22 12:55:00,63.5,28.0,30.01,NNW,338,2.0,2.0,26,0.00,,,0.00,Wunderground v.1.13,2013-05-22 19:55:00,
2013-05-22 13:00:00,63.4,25.9,30.01,West,273,2.0,6.0,24,0.00,,,0.00,Wunderground v.1.13,2013-05-22 20:00:00,
2013-05-22 13:05:00,63.7,26.2,30.01,West,280,2.0,4.0,24,0.00,,,0.00,Wunderground v.1.13,2013-05-22 20:05:00,
2013-05-22 13:15:00,64.8,27.1,30.00,SSW,198,1.0,1.0,24,0.00,,,0.00,Wunderground v.1.13,2013-05-22 20:15:00,
2013-05-22 13:20:00,65.5,27.7,30.01,NW,317,1.0,1.0,24,0.00,,,0.00,Wunderground v.1.13,2013-05-22 20:20:00,
2013-05-22 13:30:00,66.4,26.4,30.01,WNW,282,1.0,2.0,22,0.00,,,0.00,Wunderground v.1.13,2013-05-22 20:30:00,
2013-05-22 13:40:00,66.6,25.4,30.01,West,261,3.0,3.0,21,0.00,,,0.00,Wunderground v.1.13,2013-05-22 20:40:00,
2013-05-22 13:50:00,67.1,25.8,30.01,WSW,244,2.0,2.0,21,0.00,,,0.00,Wunderground v.1.13,2013-05-22 20:50:00,
2013-05-22 13:55:00,67.8,26.4,30.00,NW,304,0.0,8.0,21,0.00,,,0.00,Wunderground v.1.13,2013-05-22 20:55:00,
2013-05-22 14:05:00,68.1,26.7,30.00,WNW,283,1.0,8.0,21,0.00,,,0.00,Wunderground v.1.13,2013-05-22 21:05:00,
2013-05-22 14:14:00,68.4,28.0,30.00,West,269,2.0,2.0,22,0.00,,,0.00,Wunderground v.1.13,2013-05-22 21:14:00,
2013-05-22 14:20:00,68.3,25.6,30.01,WNW,284,2.0,8.0,20,0.00,,,0.00,Wunderground v.1.13,2013-05-22 21:20:00,
2013-05-22 14:30:00,68.4,26.9,30.00,West,270,1.0,8.0,21,0.00,,,0.00,Wunderground v.1.13,2013-05-22 21:30:00,
2013-05-22 14:40:00,68.3,25.6,30.00,WNW,292,2.0,2.0,20,0.00,,,0.00,Wunderground v.1.13,2013-05-22 21:40:00,
2013-05-22 14:45:00,68.4,25.7,30.00,West,271,2.0,2.0,20,0.00,,,0.00,Wunderground v.1.13,2013-05-22 21:45:00,
2013-05-22 14:54:00,69.1,23.8,30.00,WNW,298,1.0,8.0,18,0.00,,,0.00,Wunderground v.1.13,2013-05-22 21:54:00,
2013-05-22 15:00:00,69.3,27.7,30.00,West,277,1.0,8.0,21,0.00,,,0.00,Wunderground v.1.13,2013-05-22 22:00:00,
2013-05-22 15:05:00,69.4,24.0,30.00,West,267,1.0,8.0,18,0.00,,,0.00,Wunderground v.1.13,2013-05-22 22:05:00,
2013-05-22 15:15:00,69.4,26.6,30.00,SW,232,1.0,1.0,20,0.00,,,0.00,Wunderground v.1.13,2013-05-22 22:15:00,
2013-05-22 15:24:00,69.4,24.0,30.00,NW,325,1.0,8.0,18,0.00,,,0.00,Wunderground v.1.13,2013-05-22 22:24:00,
2013-05-22 15:29:00,68.9,23.6,30.00,WNW,300,2.0,2.0,18,0.00,,,0.00,Wunderground v.1.13,2013-05-22 22:29:00,
2013-05-22 15:35:00,68.8,23.5,30.00,WSW,254,2.0,8.0,18,0.00,,,0.00,Wunderground v.1.13,2013-05-22 22:35:00,
2013-05-22 15:40:00,68.3,25.6,30.00,ESE,113,2.0,2.0,20,0.00,,,0.00,Wunderground v.1.13,2013-05-22 22:40:00,
2013-05-22 15:50:00,67.9,21.4,30.00,WNW,290,1.0,1.0,17,0.00,,,0.00,Wunderground v.1.13,2013-05-22 22:50:00,
2013-05-22 15:55:00,68.3,24.4,30.00,WSW,240,1.0,1.0,19,0.00,,,0.00,Wunderground v.1.13,2013-05-22 22:55:00,
2013-05-22 16:05:00,68.6,24.7,29.99,SW,216,0.0,8.0,19,0.00,,,0.00,Wunderground v.1.13,2013-05-22 23:05:00,
2013-05-22 16:15:00,68.4,24.5,29.99,WNW,294,2.0,8.0,19,0.00,,,0.00,Wunderground v.1.13,2013-05-22 23:15:00,
2013-05-22 16:20:00,68.1,23.0,30.00,WNW,285,2.0,2.0,18,0.00,,,0.00,Wunderground v.1.13,2013-05-22 23:20:00,
2013-05-22 16:30:00,67.8,22.7,30.00,West,279,2.0,2.0,18,0.00,,,0.00,Wunderground v.1.13,2013-05-22 23:30:00,
2013-05-22 16:40:00,67.1,22.1,30.00,WSW,249,2.0,8.0,18,0.00,,,0.00,Wunderground v.1.13,2013-05-22 23:40:00,
2013-05-22 16:49:00,66.8,20.5,29.99,WSW,242,1.0,1.0,17,0.00,,,0.00,Wunderground v.1.13,2013-05-22 23:49:00,
2013-05-22 16:55:00,66.8,23.2,29.99,WNW,284,1.0,1.0,19,0.00,,,0.00,Wunderground v.1.13,2013-05-22 23:55:00,
2013-05-22 17:00:00,66.6,23.0,30.00,NW,321,1.0,1.0,19,0.00,,,0.00,Wunderground v.1.13,2013-05-23 00:00:00,
2013-05-22 17:10:00,66.3,25.2,30.00,West,259,1.0,1.0,21,0.00,,,0.00,Wunderground v.1.13,2013-05-23 00:10:00,
2013-05-22 17:20:00,66.6,21.7,30.00,West,277,0.0,8.0,18,0.00,,,0.00,Wunderground v.1.13,2013-05-23 00:20:00,
2013-05-22 17:29:00,65.8,21.1,29.99,West,267,0.0,8.0,18,0.00,,,0.00,Wunderground v.1.13,2013-05-23 00:29:00,
2013-05-22 17:34:00,65.3,19.3,29.99,NW,308,1.0,1.0,17,0.00,,,0.00,Wunderground v.1.13,2013-05-23 00:34:00,
2013-05-22 17:40:00,64.8,22.7,30.00,WNW,294,1.0,1.0,20,0.00,,,0.00,Wunderground v.1.13,2013-05-23 00:40:00,
2013-05-22 17:49:00,64.8,17.5,30.00,North,355,0.0,8.0,16,0.00,,,0.00,Wunderground v.1.13,2013-05-23 00:49:00,
2013-05-22 17:54:00,64.8,17.5,30.00,WNW,287,1.0,1.0,16,0.00,,,0.00,Wunderground v.1.13,2013-05-23 00:54:00,
2013-05-22 18:00:00,64.7,21.4,29.99,WNW,295,1.0,1.0,19,0.00,,,0.00,Wunderground v.1.13,2013-05-23 01:00:00,
2013-05-22 18:10:00,64.7,18.8,29.99,West,267,2.0,2.0,17,0.00,,,0.00,Wunderground v.1.13,2013-05-23 01:10:00,
2013-05-22 18:20:00,64.8,21.5,29.98,NE,42,1.0,1.0,19,0.00,,,0.00,Wunderground v.1.13,2013-05-23 01:20:00,
2013-05-22 18:30:00,64.3,17.1,29.99,WNW,288,0.0,8.0,16,0.00,,,0.00,Wunderground v.1.13,2013-05-23 01:30:00,
2013-05-22 18:35:00,64.0,18.3,29.99,WSW,247,1.0,1.0,17,0.00,,,0.00,Wunderground v.1.13,2013-05-23 01:35:00,
2013-05-22 18:45:00,63.4,17.8,29.98,NW,308,1.0,1.0,17,0.00,,,0.00,Wunderground v.1.13,2013-05-23 01:45:00,
2013-05-22 18:54:00,62.6,18.4,29.99,West,268,1.0,1.0,18,0.00,,,0.00,Wunderground v.1.13,2013-05-23 01:54:00,
2013-05-22 19:00:00,62.0,18.0,29.99,WNW,294,0.0,8.0,18,0.00,,,0.00,Wunderground v.1.13,2013-05-23 02:00:00,
2013-05-22 19:09:00,61.2,17.3,29.99,West,261,1.0,8.0,18,0.00,,,0.00,Wunderground v.1.13,2013-05-23 02:09:00,
2013-05-22 19:15:00,60.7,19.3,29.98,West,275,1.0,1.0,20,0.00,,,0.00,Wunderground v.1.13,2013-05-23 02:15:00,
2013-05-22 19:25:00,59.9,17.5,29.98,West,269,0.0,8.0,19,0.00,,,0.00,Wunderground v.1.13,2013-05-23 02:25:00,
2013-05-22 19:34:00,59.3,18.2,29.98,West,280,0.0,8.0,20,0.00,,,0.00,Wunderground v.1.13,2013-05-23 02:34:00,
2013-05-22 19:40:00,58.9,19.0,29.98,WNW,302,0.0,8.0,21,0.00,,,0.00,Wunderground v.1.13,2013-05-23 02:40:00,
2013-05-22 19:49:00,58.1,19.4,29.98,WSW,257,0.0,8.0,22,0.00,,,0.00,Wunderground v.1.13,2013-05-23 02:49:00,
2013-05-22 19:55:00,57.8,19.1,29.98,WSW,257,0.0,8.0,22,0.00,,,0.00,Wunderground v.1.13,2013-05-23 02:55:00,
2013-05-22 20:05:00,57.0,19.5,29.99,WSW,257,0.0,8.0,23,0.00,,,0.00,Wunderground v.1.13,2013-05-23 03:05:00,
2013-05-22 20:14:00,56.2,17.8,29.99,WSW,257,0.0,8.0,22,0.00,,,0.00,Wunderground v.1.13,2013-05-23 03:14:00,
2013-05-22 20:20:00,55.9,17.6,29.98,WSW,257,0.0,8.0,22,0.00,,,0.00,Wunderground v.1.13,2013-05-23 03:20:00,
2013-05-22 20:30:00,55.4,17.1,29.98,WSW,257,0.0,8.0,22,0.00,,,0.00,Wunderground v.1.13,2013-05-23 03:30:00,
2013-05-22 20:39:00,54.8,16.6,29.98,WSW,257,0.0,8.0,22,0.00,,,0.00,Wunderground v.1.13,2013-05-23 03:39:00,
2013-05-22 20:44:00,54.7,15.5,29.98,WSW,257,0.0,8.0,21,0.00,,,0.00,Wunderground v.1.13,2013-05-23 03:44:00,
2013-05-22 20:50:00,54.4,15.2,29.99,WSW,257,0.0,8.0,21,0.00,,,0.00,Wunderground v.1.13,2013-05-23 03:50:00,
2013-05-22 21:00:00,54.1,16.0,29.98,WSW,257,0.0,8.0,22,0.00,,,0.00,Wunderground v.1.13,2013-05-23 04:00:00,
2013-05-22 21:04:00,53.9,15.9,29.98,WSW,257,0.0,8.0,22,0.00,,,0.00,Wunderground v.1.13,2013-05-23 04:04:00,
2013-05-22 21:10:00,53.9,15.9,29.98,WSW,257,0.0,8.0,22,0.00,,,0.00,Wunderground v.1.13,2013-05-23 04:10:00,
2013-05-22 21:14:00,53.8,15.8,29.98,WSW,257,0.0,8.0,22,0.00,,,0.00,Wunderground v.1.13,2013-05-23 04:14:00,
2013-05-22 21:20:00,53.6,16.6,29.98,WSW,257,0.0,8.0,23,0.00,,,0.00,Wunderground v.1.13,2013-05-23 04:20:00,
2013-05-22 21:29:00,53.3,16.4,29.98,WSW,257,0.0,8.0,23,0.00,,,0.00,Wunderground v.1.13,2013-05-23 04:29:00,
2013-05-22 21:34:00,53.2,17.3,29.98,WSW,257,0.0,8.0,24,0.00,,,0.00,Wunderground v.1.13,2013-05-23 04:34:00,
2013-05-22 21:40:00,53.1,17.2,29.98,WSW,257,0.0,8.0,24,0.00,,,0.00,Wunderground v.1.13,2013-05-23 04:40:00,
2013-05-22 21:45:00,52.9,17.0,29.98,NW,314,0.0,8.0,24,0.00,,,0.00,Wunderground v.1.13,2013-05-23 04:45:00,
2013-05-22 21:54:00,52.8,16.0,29.98,NE,35,0.0,8.0,23,0.00,,,0.00,Wunderground v.1.13,2013-05-23 04:54:00,
2013-05-22 22:00:00,52.8,14.9,29.98,NE,49,0.0,8.0,22,0.00,,,0.00,Wunderground v.1.13,2013-05-23 05:00:00,
2013-05-22 22:09:00,52.6,15.8,29.98,NE,50,0.0,8.0,23,0.00,,,0.00,Wunderground v.1.13,2013-05-23 05:09:00,
2013-05-22 22:15:00,52.6,16.8,29.97,NE,50,0.0,8.0,24,0.00,,,0.00,Wunderground v.1.13,2013-05-23 05:15:00,
2013-05-22 22:20:00,52.5,16.7,29.97,NE,50,0.0,8.0,24,0.00,,,0.00,Wunderground v.1.13,2013-05-23 05:20:00,
2013-05-22 22:24:00,52.2,17.4,29.98,ENE,61,0.0,8.0,25,0.00,,,0.00,Wunderground v.1.13,2013-05-23 05:24:00,
2013-05-22 22:30:00,52.0,17.2,29.97,ENE,62,0.0,8.0,25,0.00,,,0.00,Wunderground v.1.13,2013-05-23 05:30:00,
2013-05-22 22:40:00,51.6,19.5,29.97,ENE,59,0.0,8.0,28,0.00,,,0.00,Wunderground v.1.13,2013-05-23 05:40:00,
2013-05-22 22:50:00,50.8,18.8,29.97,ENE,63,1.0,8.0,28,0.00,,,0.00,Wunderground v.1.13,2013-05-23 05:50:00,
2013-05-22 22:55:00,50.5,20.2,29.97,ENE,72,2.0,8.0,30,0.00,,,0.00,Wunderground v.1.13,2013-05-23 05:55:00,
2013-05-22 23:05:00,49.9,19.7,29.98,ENE,76,3.0,3.0,30,0.00,,,0.00,Wunderground v.1.13,2013-05-23 06:05:00,
2013-05-22 23:15:00,49.2,19.8,29.98,ENE,76,3.0,8.0,31,0.00,,,0.00,Wunderground v.1.13,2013-05-23 06:15:00,
2013-05-22 23:24:00,48.9,19.5,29.97,ENE,77,3.0,8.0,31,0.00,,,0.00,Wunderground v.1.13,2013-05-23 06:24:00,
2013-05-22 23:30:00,48.8,20.2,29.96,ENE,77,3.0,8.0,32,0.00,,,0.00,Wunderground v.1.13,2013-05-23 06:30:00,
2013-05-22 23:35:00,48.6,20.0,29.96,ENE,77,3.0,3.0,32,0.00,,,0.00,Wunderground v.1.13,2013-05-23 06:35:00,
2013-05-22 23:44:00,48.2,19.7,29.97,ENE,77,3.0,3.0,32,0.00,,,0.00,Wunderground v.1.13,2013-05-23 06:44:00,
2013-05-22 23:49:00,48.0,20.2,29.97,ENE,77,3.0,3.0,33,0.00,,,0.00,Wunderground v.1.13,2013-05-23 06:49:00,
2013-05-22 23:54:00,47.9,21.5,29.97,ENE,77,1.0,8.0,35,0.00,,,0.00,Wunderground v.1.13,2013-05-23 06:54:00,